This demonstration page uses our WeatherBlox Daily Observations layout. Learn more.

Left ArrowRight Arrow

Hourly Observations for May 31, 2015

Temp ( °F °C ) Dew Point ( °F °C ) Humidity (%) Winds ( mph kmh ) Pressure ( in mb ) Visibility ( mi km ) Precip ( " mm )
12:52 am 00:52 Clear 55 12.8 49 9.4 80 80 ENE 7 11 30.20 1023 10 16 0.00 0.00
1:52 am 01:52 Clear 54 12.2 48 8.9 80 80 ENE 9 15 30.19 1023 10 16 0.00 0.00
2:52 am 02:52 Clear 53 11.7 48 8.9 83 83 ENE 7 11 30.19 1022 10 16 0.00 0.00
3:52 am 03:52 Mostly Clear 50 10 47 8.3 89 89 NW 5 7 30.21 1023 10 16 0.00 0.00
4:52 am 04:52 Partly Cloudy 49 9.4 47 8.3 93 93 NNW 5 7 30.20 1023 10 16 0.00 0.00
5:52 am 05:52 Mostly Cloudy 49 9.4 47 8.3 93 93 NNW 7 11 30.20 1023 10 16 0.00 0.00
6:52 am 06:52 Mostly Cloudy 53 11.7 49 9.4 86 86 Calm 30.20 1023 10 16 0.00 0.00
7:52 am 07:52 Mostly Cloudy 55 12.8 50 10 83 83 SE 6 9 30.20 1023 10 16 0.00 0.00
8:52 am 08:52 Mostly Cloudy 58 14.4 51 10.6 78 78 E 7 11 30.21 1023 10 16 0.00 0.00
9:52 am 09:52 Partly Cloudy 61 16.1 51 10.6 70 70 E 12 19 30.20 1023 10 16 0.00 0.00
10:52 am 10:52 Mostly Cloudy 63 17.2 48 8.9 58 58 E 7 11 30.20 1023 10 16 0.00 0.00
11:52 am 11:52 Partly Cloudy 64 17.8 47 8.3 54 54 SE 7 11 30.19 1023 10 16 0.00 0.00
12:52 pm 12:52 Partly Cloudy 66 18.9 43 6.1 43 43 VRB 7 11 30.19 1022 10 16 0.00 0.00
1:52 pm 13:52 Mostly Cloudy 68 20 41 5 38 38 ESE 9 15 30.16 1022 10 16 0.00 0.00
2:52 pm 14:52 Mostly Cloudy 67 19.4 42 5.6 41 41 E 10 17 30.16 1021 10 16 0.00 0.00
3:52 pm 15:52 Mostly Cloudy 67 19.4 44 6.7 44 44 ESE 8 13 30.14 1021 10 16 0.00 0.00
4:52 pm 16:52 Mostly Cloudy 69 20.6 44 6.7 41 41 ESE 10 17 30.12 1020 10 16 0.00 0.00
5:52 pm 17:52 Mostly Cloudy 67 19.4 42 5.6 41 41 ESE 8 13 30.11 1020 10 16 0.00 0.00
6:52 pm 18:52 Mostly Cloudy 66 18.9 43 6.1 43 43 E 7 11 30.11 1020 10 16 0.00 0.00
7:52 pm 19:52 Mostly Cloudy 66 18.9 43 6.1 43 43 SE 9 15 30.10 1019 10 16 0.00 0.00
8:52 pm 20:52 Mostly Cloudy 63 17.2 45 7.2 52 52 NE 6 9 30.12 1020 10 16 0.00 0.00
9:52 pm 21:52 Mostly Cloudy 62 16.7 42 5.6 48 48 E 7 11 30.14 1021 10 16 0.00 0.00
10:52 pm 22:52 Mostly Cloudy 62 16.7 41 5 46 46 ESE 6 9 30.15 1021 10 16 0.00 0.00
11:52 pm 23:52 Mostly Cloudy 61 16.1 42 5.6 50 50 SE 7 11 30.14 1021 10 16 0.00 0.00

Powered by AerisWeather